Showing default

PACE, 40022

Orbit data source: Space-Track

PACE, 40022 is a Taiwanese payload satellite in SSO that was launched on Thu, 19 Jun 2014 UTC via a DNEPR launch vehicle from the Orenburg, Russia (OREN). Payload-class satellites include a variety of spacecraft equipped with specific instruments for various scientific and technological missions. These include communications satellites like Starlink; space stations such as the ISS; scientific satellites like the Hubble; Earth observation satellites from companies like Planet Labs, Umbra, and HawkEye 360; GPS; miniature CubeSats for education and research; and military/defense satellites.

Loading next visibility...
Identifier
40022, 2014-033N
Orbit
SSO
Country
Flag of TWTW / TWN
Related business
Manufacturer
NCKU
Mission
Non-operational Commercial Technology
Bus & Motor
CUBESAT 2U, Unknown motor
Mass
2 kg wet, 2 kg dry
Launch date (UTC)
2014-06-19 (12 years ago)
Launch vehicle
DNEPR
Launch site
Orenburg, Russia (OREN)
Object type
Payload
Rocket body
Debris
Shape & HBR
Box, 0.1 m
Radar Cross Section
0.057 m², Medium (>0.1 m² and < 1m²)

Expand to show TLE details & history
Last TLE update: 2 days ago

TLE from 2 days ago
0 PACE
1 40022U 14033N   26170.97739336  .00003939  00000-0  24113-3 0  9990
2 40022  98.1236 176.0178 0005823 193.8768 166.2301 15.10844030653457
Epoch: 2026-06-19T23:27Z
TLE epoch observation values (Epoch: 2026-06-19T23:27:26.786Z)
Latitude
-0°
Longitude
-84.04244°
Altitude
540.591 km
Speed
7.59 km/s
True Right ascension
11h 44m 04s
True Declination
0° 00' 00"
Sunlit
Object was in daylight at epoch
Visualization orbit readout
Latitude
Unknown
Longitude
Unknown
Altitude
Unknown
Speed
Unknown
Apparent Right ascension
Unknown
Apparent Declination
Unknown
Sunlit
N/A
Visualization observer readout
Local Sidereal Time
21:40:07
Azimuth
Unknown
Elevation
Unknown
Doppler factor
Unknown
Orbital elements
Apogee altitude
534.658 km
Perigee altitude
526.612 km
Semi-major axis
6,908.772 km
Eccentricity
0.00058
Inclination
98.1236°
RAAN
176.0178°
Arg. of periapsis
193.8768°
True anomaly
166.24597°
Mean anomaly
166.2301°
Eccentric anomaly
166.23804°
Mean motion
3.77957 °/min
Orbital period
95.25 mins
BSTAR
0.00024113
Loading maneuver chart data...
Computing Atmospheric mass density...
Loading historical data...
Loading historical data...
Loading historical data...
Loading historical data...
Loading historical data...
Loading historical data...
Loading historical data...

Documentation

Showing up to 5 results
|